Weather History for Kremmling, CO

Change the Weather History Date:

Saturday, December 8, 2012

  Actual Average (KEGE) Record (KEGE)
Temperature  
Mean Temperature 24 °F -  
Max Temperature 33 °F 37 °F 57 °F (1976)
Min Temperature 14 °F 9 °F -27 °F (1978)
Degree Days  
Heating Degree Days 42    
Moisture  
Dew Point 13 °F    
Average Humidity 56    
Maximum Humidity 80    
Minimum Humidity 35    
Precipitation  
Precipitation 0.00 in - - ()
Sea Level Pressure  
Sea Level Pressure 29.81 in    
Wind  
Wind Speed 8 mph (WNW)    
Max Wind Speed 26 mph    
Max Gust Speed 40 mph    
Averages and records for this station are not official NWS values.
T = Trace of Precipitation, MM = Missing Value Source: NWS Daily Summary

Daily Weather History Graph

Daily Weather History Graph

Search for Another Location

Airport:

Trip Planner

Search our weather history database for the weather conditions in past years. The results will help you decide how hot, cold, wet, or windy it might be!

Date:

Astronomy

Dec. 08, 2012 Rise Set
Actual Time 7:15 AM MST 4:39 PM MST
Civil Twilight 6:44 AM MST 5:10 PM MST
Nautical Twilight 6:11 AM MST 5:44 PM MST
Astronomical Twilight 5:38 AM MST 6:17 PM MST
Moon 1:43 AM MST (12/8) 1:11 PM MST (12/8)
Length of Visible Light 10h 25m
Length of Day
9h 24m
Waning Crescent, 27% of the Moon is Illuminated
Dec 8
Waning Crescent
Dec 13
New
Dec 19
First Quarter
Dec 28
Full
Jan 4
Last Quarter

Hourly Weather History & Observations

Time (MST) Temp. Windchill Dew Point Humidity Pressure Visibility Wind Dir Wind Speed Gust Speed Precip Events Conditions
12:12 AM 28.4 °F - 21.2 °F 74% 29.90 in - Calm Calm - N/A   Overcast
12:34 AM 28.4 °F - 19.4 °F 69% 29.90 in - Calm Calm - N/A Snow Light Snow
12:51 AM 28.4 °F - 19.4 °F 69% 29.89 in - Calm Calm - N/A   Overcast
1:12 AM 28.4 °F 24.6 °F 19.4 °F 69% 29.88 in - North 3.5 mph - N/A   Overcast
1:34 AM 28.4 °F 24.6 °F 19.4 °F 69% 29.87 in - SSW 3.5 mph - N/A   Overcast
1:51 AM 28.4 °F 24.6 °F 21.2 °F 74% 29.87 in - ESE 3.5 mph - N/A   Overcast
2:10 AM 28.4 °F - 21.2 °F 74% 29.86 in - Calm Calm - N/A   Overcast
2:32 AM 28.4 °F - 21.2 °F 74% 29.86 in - Calm Calm - N/A   Overcast
2:52 AM 28.4 °F - 19.4 °F 69% 29.85 in - Calm Calm - N/A   Overcast
3:12 AM 28.4 °F - 21.2 °F 74% 29.85 in - Calm Calm - N/A   Overcast
3:35 AM 28.4 °F - 17.6 °F 64% 29.84 in - Calm Calm - N/A   Overcast
3:55 AM 28.4 °F 22.2 °F 17.6 °F 64% 29.83 in - NNW 5.8 mph - N/A   Overcast
4:15 AM 28.4 °F 23.3 °F 17.6 °F 64% 29.83 in - North 4.6 mph - N/A   Overcast
4:33 AM 30.2 °F 23.4 °F 17.6 °F 60% 29.83 in - NNW 6.9 mph - N/A   Overcast
4:53 AM 30.2 °F 25.4 °F 17.6 °F 60% 29.82 in - NNW 4.6 mph - N/A   Overcast
5:13 AM 30.2 °F 21.9 °F 15.8 °F 55% 29.82 in - West 9.2 mph - N/A   Mostly Cloudy
5:33 AM 32.0 °F 24.8 °F 12.2 °F 44% 29.80 in - WSW 8.1 mph - N/A   Overcast
5:55 AM 32.0 °F 28.7 °F 12.2 °F 44% 29.79 in - WSW 3.5 mph - N/A   Overcast
6:15 AM 32.0 °F 25.6 °F 12.2 °F 44% 29.79 in - West 6.9 mph - N/A   Overcast
6:34 AM 32.0 °F 24.8 °F 12.2 °F 44% 29.79 in - WSW 8.1 mph - N/A   Overcast
6:51 AM 32.0 °F 23.0 °F 10.4 °F 41% 29.78 in - WSW 11.5 mph 20.7 mph N/A   Overcast
7:11 AM 32.0 °F 24.2 °F 10.4 °F 41% 29.78 in - WSW 9.2 mph 17.3 mph N/A   Overcast
7:31 AM 32.0 °F 21.6 °F 8.6 °F 38% 29.78 in - West 15.0 mph 20.7 mph N/A   Overcast
7:53 AM 32.0 °F 20.1 °F 6.8 °F 35% 29.77 in - West 19.6 mph 25.3 mph N/A   Overcast
8:12 AM 32.0 °F 20.8 °F 6.8 °F 35% 29.77 in - West 17.3 mph 26.5 mph N/A   Overcast
8:33 AM 32.0 °F 19.8 °F 8.6 °F 38% 29.76 in - WSW 20.7 mph 29.9 mph N/A   Overcast
8:53 AM 33.8 °F 21.6 °F 10.4 °F 38% 29.76 in - West 23.0 mph 32.2 mph N/A   Overcast
9:15 AM 33.8 °F 20.8 °F 12.2 °F 41% 29.77 in - WSW 26.5 mph 32.2 mph N/A   Overcast
9:32 AM 33.8 °F 20.8 °F 12.2 °F 41% 29.77 in - WSW 26.5 mph 32.2 mph N/A   Overcast
9:55 AM 33.8 °F 21.9 °F 12.2 °F 41% 29.77 in - WSW 21.9 mph 31.1 mph N/A   Overcast
10:11 AM 33.8 °F 22.2 °F 12.2 °F 41% 29.76 in - WSW 20.7 mph 28.8 mph N/A   Overcast
10:34 AM 33.8 °F 21.0 °F 12.2 °F 41% 29.76 in - WSW 25.3 mph 34.5 mph N/A   Overcast
10:51 AM 33.8 °F 21.9 °F 12.2 °F 41% 29.76 in - WSW 21.9 mph 32.2 mph N/A   Overcast
11:15 AM 33.8 °F 21.3 °F 14.0 °F 44% 29.74 in - WSW 24.2 mph 33.4 mph N/A   Overcast
11:34 AM 33.8 °F 23.5 °F 12.2 °F 41% 29.74 in - West 16.1 mph 32.2 mph N/A   Overcast
11:52 AM 33.8 °F 23.2 °F 12.2 °F 41% 29.72 in - WSW 17.3 mph 25.3 mph N/A   Overcast
12:13 PM 33.8 °F 23.5 °F 10.4 °F 38% 29.71 in - West 16.1 mph 24.2 mph N/A   Overcast
12:34 PM 33.8 °F 22.2 °F 10.4 °F 38% 29.71 in - WSW 20.7 mph 32.2 mph N/A   Overcast
12:55 PM 33.8 °F 21.0 °F 10.4 °F 38% 29.70 in - WSW 25.3 mph 40.3 mph N/A   Overcast
1:11 PM 33.8 °F 22.2 °F 10.4 °F 38% 29.69 in - WSW 20.7 mph 34.5 mph N/A   Overcast
1:31 PM 33.8 °F 22.8 °F 14.0 °F 44% 29.70 in - West 18.4 mph 35.7 mph N/A   Overcast
1:53 PM 33.8 °F 21.6 °F 14.0 °F 44% 29.70 in - WSW 23.0 mph 33.4 mph N/A   Overcast
2:12 PM 33.8 °F 21.3 °F 17.6 °F 52% 29.70 in - WSW 24.2 mph 31.1 mph N/A   Overcast
2:32 PM 32.0 °F 19.5 °F 17.6 °F 55% 29.71 in - West 21.9 mph 35.7 mph N/A   Overcast
2:53 PM 33.8 °F 24.8 °F 17.6 °F 52% 29.71 in - West 12.7 mph 21.9 mph N/A   Overcast
3:14 PM 32.0 °F 22.5 °F 19.4 °F 60% 29.73 in - NNW 12.7 mph 20.7 mph N/A Snow Light Snow
3:32 PM 30.2 °F 21.3 °F 21.2 °F 69% 29.75 in - NNW 10.4 mph 18.4 mph N/A Snow Light Snow
3:51 PM 28.4 °F 18.0 °F 19.4 °F 69% 29.75 in - NNW 12.7 mph - N/A Snow Light Snow
4:14 PM 26.6 °F 16.2 °F 19.4 °F 74% 29.76 in - NNW 11.5 mph - N/A Snow Light Snow
4:35 PM 24.8 °F 14.0 °F 19.4 °F 80% 29.78 in - NNW 11.5 mph 17.3 mph N/A Snow Light Snow
4:54 PM 23.0 °F 10.6 °F 15.8 °F 74% 29.78 in - NW 13.8 mph 18.4 mph N/A Snow Light Snow
5:11 PM 23.0 °F 12.4 °F 14.0 °F 68% 29.80 in - NW 10.4 mph - N/A   Overcast
5:32 PM 23.0 °F 12.4 °F 10.4 °F 59% 29.81 in - NW 10.4 mph - N/A   Overcast
5:51 PM 23.0 °F 11.1 °F 10.4 °F 59% 29.83 in - NW 12.7 mph 18.4 mph N/A   Overcast
6:14 PM 21.2 °F 7.3 °F 6.8 °F 54% 29.83 in - NW 16.1 mph 23.0 mph N/A   Overcast
6:55 PM 19.4 °F 8.6 °F 5.0 °F 54% 29.86 in - NW 9.2 mph - N/A   Overcast
7:15 PM 19.4 °F 11.5 °F 3.2 °F 49% 29.88 in - West 5.8 mph 17.3 mph N/A   Overcast
7:35 PM 19.4 °F 7.9 °F 1.4 °F 46% 29.88 in - NNW 10.4 mph 16.1 mph N/A   Overcast
8:12 PM 19.4 °F 8.6 °F 3.2 °F 49% 29.89 in - North 9.2 mph 17.3 mph N/A   Overcast
8:33 PM 19.4 °F 8.6 °F 5.0 °F 54% 29.88 in - NE 9.2 mph 18.4 mph N/A   Overcast
8:52 PM 17.6 °F 8.2 °F 5.0 °F 58% 29.88 in - NNE 6.9 mph - N/A   Overcast
9:12 PM 17.6 °F 5.7 °F 5.0 °F 58% 29.89 in - North 10.4 mph - N/A   Overcast
9:35 PM 17.6 °F 9.3 °F 5.0 °F 58% 29.90 in - NNW 5.8 mph - N/A   Overcast
9:55 PM 17.6 °F 9.3 °F 8.6 °F 68% 29.91 in - NW 5.8 mph - N/A Snow Light Snow
10:13 PM 15.8 °F 5.1 °F 8.6 °F 73% 29.92 in - NNW 8.1 mph - N/A Snow Light Snow
10:32 PM 14.0 °F 6.5 °F 8.6 °F 79% 29.91 in - North 4.6 mph - N/A Snow Light Snow
10:55 PM 14.0 °F 6.5 °F 8.6 °F 79% 29.92 in - SSE 4.6 mph - N/A   Overcast
11:11 PM 15.8 °F - 8.6 °F 73% 29.91 in - Calm Calm - N/A   Overcast
11:32 PM 15.8 °F - 8.6 °F 73% 29.91 in - Calm Calm - N/A   Overcast
11:51 PM 15.8 °F - 8.6 °F 73% 29.91 in - Calm Calm - N/A   Overcast